Other Public Products
Issued by NWS Charleston, SC

Current Version | Previous Version | Graphics & Text | Print | Product List | Glossary On
Versions: 1 2 3 4 5 6 7 8 9 10 11 12 13 14 15 16 17 18 19 20 21 22 23 24 25 26 27 28 29 30 31 32 33 34 35 36 37 38 39 40 41 42 43 44 45 46 47 48 49 50
000
FPUS82 KCHS 250512
OPUCHS

TEST...KCHS/KSAV Gateway Observations...TEST
National Weather Service Charleston SC
1200 AM EST SUN FEB 25 2018

NOTE: "fair" indicates few or no clouds below 12,000 feet with no
significant weather and/or obstructions to visibility.

SCZ050-WAZ558-NCZ071-TXZ119-213-PAZ071-DCZ001-FLZ074-172-MI076-
NYZ176-178-MAZ016-IL014-TNZ027-NJZ106-GAZ044-MD014-250600-

...Gateway Observations for Charleston International...

CITY           SKY/WX    TMP DP  RH WIND       PRES   REMARKS
Chas Airport   FAIR      66  63  90 S8        30.14F
Seattle        CLOUDY    42  32  67 S15G29    30.12S
Charlotte      FAIR      69  59  70 S16G25    30.06S
Dallas DFW     MOCLDY    52  44  74 CALM      29.99R
Dallas Love    MOCLDY    49  46  90 CALM      30.00R
Philladelphia  CLOUDY    46  42  86 E8        30.16F
Wash National  LGT RAIN  49  48  97 NE6       30.12F
Baltimore      CLOUDY    47  46  97 NE9       30.12F FOG
Miami          LGT RAIN  71  68  90 SE6       30.17F
Detroit        LGT RAIN  37  35  92 E17G26    29.76F WCI  27
Newark         CLOUDY    43  41  93 NE8       30.21S
Laguardia      CLOUDY    43  39  86 NE8       30.21S
J F K          CLOUDY    44  42  93 NE10      30.21F
Boston Logan   MOCLDY    39  29  67 N9        30.30R WCI  33
Ft. Lauderdale FAIR      75  70  84 SE14      30.16S
Chicago O`Hare CLOUDY    47  44  90 SE15      29.45F
Chicago Midway CLOUDY    48  47  96 SE16G25   29.45F
Houston Bush   TSTM      73  71  93 S3        29.95S
Houston Hobby  CLOUDY    73  72  96 S7        29.95R
Nashville      HVY RAIN  59  55  87 W15G32    29.90R FOG
Atlanta        FAIR      70  59  68 SW9       30.07S

$$

GAZ044-118-TXZ119-213-NCZ071-DCZ001-MDZ014-506-PAZ021-071-NJZ106-
NYZ176-178-MAZ106-OHZ011-021-055-MIZ076-KYZ091-ILZ014-INZ047-
MNZ060-ONZ431-250600-

...Gateway Observations for Savannah International...

CITY           SKY/WX    TMP DP  RH WIND       PRES   REMARKS
Savannah Arpt  FAIR      67  65  93 S9        30.15S
Atlanta        FAIR      70  59  68 SW9       30.07S
Charlotte      FAIR      69  59  70 S16G25    30.06S
Dallas DFW     MOCLDY    52  44  74 CALM      29.99R
Houston Bush   TSTM      73  71  93 S3        29.95S
Wash National  LGT RAIN  49  48  97 NE6       30.12F
Wash Dulles    RAIN      47  47 100 E7        30.10F FOG
Baltimore      CLOUDY    47  46  97 NE9       30.12F FOG
Philadelphia   CLOUDY    46  42  86 E8        30.16F
Newark         CLOUDY    43  41  93 NE8       30.21S
Laguardia      CLOUDY    43  39  86 NE8       30.21S
J F K          CLOUDY    44  42  93 NE10      30.21F
Boston         MOCLDY    39  29  67 N9        30.30R WCI  33
Pittsburg      CLOUDY    48  47  96 SE8       29.88F
Akron          RAIN      48  44  86 SE12      29.85F FOG
Cleveland      LGT RAIN  48  46  93 SE10      29.84F
Cincinnati     RAIN      56  55  97 SW10      29.76R FOG
Columbus       HVY RAIN  50  50 100 SE8       29.76F
Detroit        LGT RAIN  37  35  92 E17G26    29.76F WCI  27
Chicago O`Hare CLOUDY    47  44  90 SE15      29.45F
Minneapolis    CLOUDY    28  28 100 W8        29.47F FOG     WCI  20
Indianapolis   MOCLDY    54  53  97 S20G25    29.60R
Toronto Canada CLOUDY    36  27  69 E16G22    30.05F WCI  26

$$




USA.gov is the U.S. government's official web portal to all federal, state and local government web resources and services.